Terminal Aerodrome Forecast
Issued by NWS

Home | Current Version | Previous Version | Graphics & Text | Print | Product List | Glossary On
Versions: 1 2 3 4 5 6 7 8 9 10 11 12 13 14 15 16 17
000
FTUS43 KBIS 011700
TAFMOT
TAF
KMOT 011736Z 0118/0218 28016KT P6SM VCSH SCT020
     FM012300 26011KT P6SM SCT020
     FM020300 VRB06KT P6SM SKC=

USA.gov is the U.S. government's official web portal to all federal, state and local government web resources and services.